| time (UTC) | temp C | wind direction | speed KPH | gust KPH | rain 1hr cm | rain 24hr cm | rain mn cm | humidity % | barometer mb |
| 20260902101544 | 25 | 89 | 0.0 | 4.8 | 0.00 | 1.57 | 0.00 | 97 | 1015.1 |
| 20260902094545 | 25 | 0 | 0.0 | 0.0 | 0.00 | 1.70 | 0.00 | 97 | 1015.0 |
| 20260902093047 | 25 | 0 | 0.0 | 1.6 | 0.00 | 1.70 | 0.00 | 97 | 1014.9 |
| 20260902091539 | 25 | 0 | 0.0 | 0.0 | 0.00 | 1.70 | 0.00 | 96 | 1015.0 |
| 20260902090041 | 26 | 0 | 0.0 | 0.0 | 0.00 | 1.70 | 0.00 | 96 | 1015.0 |
| 20260902084544 | 26 | 0 | 0.0 | 1.6 | 0.00 | 1.70 | 0.00 | 96 | 1014.9 |
| 20260902083043 | 26 | 0 | 0.0 | 6.4 | 0.00 | 1.70 | 0.00 | 96 | 1014.8 |
| 20260902081540 | 26 | 144 | 0.0 | 6.4 | 0.00 | 1.70 | 0.00 | 96 | 1014.7 |
| 20260902080045 | 26 | 188 | 1.6 | 4.8 | 0.00 | 1.70 | 0.00 | 97 | 1014.7 |
| 20260902074543 | 26 | 207 | 1.6 | 6.4 | 0.00 | 1.70 | 0.00 | 97 | 1015.0 |
| 20260902073049 | 26 | 0 | 0.0 | 3.2 | 0.00 | 1.70 | 0.00 | 97 | 1015.0 |
| 20260902071541 | 26 | 0 | 0.0 | 4.8 | 0.00 | 1.70 | 0.00 | 97 | 1015.2 |
| 20260902070047 | 26 | 0 | 0.0 | 1.6 | 0.00 | 1.70 | 0.00 | 97 | 1015.2 |
| 20260902064549 | 26 | 0 | 0.0 | 3.2 | 0.00 | 1.73 | 0.00 | 97 | 1015.1 |
| 20260902063049 | 26 | 0 | 0.0 | 3.2 | 0.00 | 1.73 | 0.00 | 96 | 1015.2 |
| 20260902061544 | 26 | 0 | 0.0 | 0.0 | 0.00 | 1.73 | 0.00 | 96 | 1015.1 |
| 20260902060049 | 26 | 0 | 0.0 | 0.0 | 0.00 | 1.73 | 0.00 | 96 | 1015.1 |
| 20260902054547 | 26 | 0 | 0.0 | 3.2 | 0.00 | 1.75 | 0.00 | 96 | 1015.3 |
| 20260902053047 | 26 | 111 | 0.0 | 3.2 | 0.00 | 1.75 | 0.00 | 95 | 1015.3 |
| 20260902051541 | 26 | 0 | 0.0 | 3.2 | 0.00 | 1.75 | 0.00 | 95 | 1015.2 |
| 20260902050055 | 26 | 0 | 0.0 | 4.8 | 0.00 | 1.75 | 0.00 | 95 | 1015.2 |
| 20260902044546 | 26 | 0 | 0.0 | 6.4 | 0.00 | 1.75 | 1.75 | 95 | 1015.1 |
| 20260902043045 | 26 | 161 | 0.0 | 6.4 | 0.00 | 1.75 | 1.75 | 95 | 1015.3 |
| 20260902041542 | 26 | 0 | 0.0 | 4.8 | 0.00 | 1.75 | 1.75 | 95 | 1015.3 |
| 20260902040039 | 26 | 168 | 0.0 | 6.4 | 0.00 | 1.75 | 1.75 | 95 | 1015.4 |
| 20260902034540 | 26 | 74 | 0.0 | 6.4 | 0.00 | 1.75 | 1.75 | 94 | 1015.4 |
| 20260902033047 | 26 | 151 | 0.0 | 6.4 | 0.00 | 1.75 | 1.75 | 94 | 1015.3 |
| 20260902031545 | 27 | 134 | 1.6 | 9.7 | 0.00 | 1.75 | 1.75 | 94 | 1015.1 |
| 20260902030039 | 26 | 103 | 1.6 | 12.9 | 0.00 | 1.75 | 1.75 | 94 | 1015.0 |
| 20260902024539 | 26 | 0 | 1.6 | 8.0 | 0.00 | 1.75 | 1.75 | 94 | 1014.9 |
| 20260902023051 | 26 | 0 | 1.6 | 6.4 | 0.00 | 1.75 | 1.75 | 94 | 1014.7 |
| 20260902021544 | 27 | 0 | 1.6 | 9.7 | 0.00 | 1.75 | 1.75 | 94 | 1014.6 |
| 20260902020040 | 27 | 174 | 0.0 | 4.8 | 0.00 | 1.75 | 1.75 | 93 | 1014.5 |
| 20260902014549 | 27 | 82 | 1.6 | 8.0 | 0.00 | 1.75 | 1.75 | 93 | 1014.3 |
| 20260902013047 | 27 | 0 | 1.6 | 9.7 | 0.00 | 1.75 | 1.75 | 93 | 1014.1 |
| 20260902011549 | 27 | 208 | 1.6 | 9.7 | 0.00 | 1.75 | 1.75 | 93 | 1014.1 |
| 20260902010040 | 27 | 0 | 0.0 | 6.4 | 0.00 | 1.75 | 1.75 | 92 | 1014.2 |
| 20260902004540 | 27 | 67 | 0.0 | 6.4 | 0.00 | 1.75 | 1.75 | 91 | 1014.4 |
| 20260902003047 | 27 | 153 | 0.0 | 8.0 | 0.00 | 1.75 | 1.75 | 91 | 1014.4 |
| 20260902001545 | 27 | 119 | 1.6 | 11.3 | 0.00 | 1.75 | 1.75 | 90 | 1014.4 |
| 20260902000048 | 28 | 185 | 0.0 | 6.4 | 0.00 | 1.75 | 1.75 | 90 | 1014.3 |
| 20260901234539 | 28 | 145 | 3.2 | 14.5 | 0.00 | 1.75 | 1.75 | 89 | 1014.2 |
| 20260901233046 | 28 | 0 | 3.2 | 16.1 | 0.00 | 1.75 | 1.75 | 88 | 1014.0 |
| 20260901231545 | 28 | 173 | 4.8 | 16.1 | 0.00 | 1.75 | 1.75 | 89 | 1014.1 |
| 20260901230044 | 28 | 125 | 4.8 | 12.9 | 0.00 | 1.75 | 1.75 | 89 | 1014.0 |
| 20260901224551 | 28 | 97 | 3.2 | 17.7 | 0.00 | 1.78 | 1.75 | 89 | 1013.8 |
| 20260901223038 | 28 | 151 | 4.8 | 17.7 | 0.00 | 1.78 | 1.75 | 89 | 1013.8 |
| 20260901221556 | 28 | 167 | 3.2 | 19.3 | 0.00 | 1.78 | 1.75 | 89 | 1013.7 |
| 20260901220045 | 28 | 137 | 3.2 | 16.1 | 0.00 | 1.78 | 1.75 | 88 | 1013.7 |
| 20260901214554 | 28 | 213 | 6.4 | 16.1 | 0.00 | 1.78 | 1.75 | 87 | 1013.8 |
| 20260901213035 | 28 | 181 | 4.8 | 16.1 | 0.00 | 1.78 | 1.75 | 87 | 1013.8 |
| 20260901211539 | 28 | 86 | 4.8 | 19.3 | 0.00 | 1.78 | 1.75 | 87 | 1014.0 |
| 20260901210042 | 28 | 169 | 4.8 | 20.9 | 0.00 | 1.78 | 1.75 | 88 | 1014.1 |
| 20260901204538 | 28 | 90 | 4.8 | 16.1 | 0.00 | 1.78 | 1.75 | 89 | 1014.4 |
| 20260901203035 | 28 | 69 | 6.4 | 19.3 | 0.00 | 1.78 | 1.75 | 87 | 1014.7 |
| 20260901201538 | 28 | 96 | 6.4 | 17.7 | 0.00 | 1.78 | 1.75 | 88 | 1014.8 |
| 20260901200038 | 28 | 206 | 6.4 | 20.9 | 0.00 | 1.78 | 1.75 | 86 | 1014.7 |
| 20260901194549 | 28 | 94 | 4.8 | 20.9 | 0.00 | 1.85 | 1.75 | 87 | 1014.5 |
| 20260901193040 | 28 | 172 | 6.4 | 17.7 | 0.00 | 1.85 | 1.75 | 88 | 1014.6 |
| 20260901191549 | 28 | 136 | 6.4 | 17.7 | 0.00 | 1.85 | 1.75 | 88 | 1015.0 |
| 20260901190047 | 28 | 67 | 6.4 | 16.1 | 0.00 | 1.85 | 1.75 | 88 | 1014.9 |
| 20260901184538 | 28 | 38 | 4.8 | 16.1 | 0.00 | 1.85 | 1.75 | 88 | 1015.1 |
| 20260901183102 | 28 | 42 | 4.8 | 14.5 | 0.00 | 1.85 | 1.75 | 88 | 1015.2 |
| 20260901181540 | 28 | 156 | 3.2 | 16.1 | 0.00 | 1.85 | 1.75 | 89 | 1014.8 |
| 20260901180038 | 28 | 184 | 4.8 | 22.5 | 0.00 | 1.85 | 1.75 | 91 | 1014.9 |
| 20260901174541 | 27 | 136 | 4.8 | 20.9 | 0.00 | 1.85 | 1.75 | 92 | 1014.9 |
| 20260901173041 | 27 | 90 | 3.2 | 16.1 | 0.00 | 1.85 | 1.75 | 94 | 1015.0 |
| 20260901171538 | 27 | 42 | 4.8 | 16.1 | 0.00 | 1.85 | 1.75 | 96 | 1015.3 |
| 20260901170045 | 26 | 144 | 4.8 | 14.5 | 0.00 | 1.85 | 1.75 | 97 | 1015.1 |
| 20260901164541 | 26 | 202 | 4.8 | 12.9 | 0.00 | 1.85 | 1.75 | 97 | 1015.4 |
| 20260901163051 | 26 | 65 | 6.4 | 17.7 | 0.00 | 1.85 | 1.75 | 98 | 1015.4 |
| 20260901161538 | 26 | 124 | 4.8 | 14.5 | 0.00 | 1.85 | 1.75 | 98 | 1015.4 |
| 20260901160040 | 25 | 38 | 4.8 | 14.5 | 0.03 | 1.85 | 1.75 | 98 | 1015.5 |
| 20260901154602 | 25 | 90 | 3.2 | 8.0 | 0.53 | 1.85 | 1.75 | 98 | 1015.5 |
| 20260901153046 | 25 | 97 | 4.8 | 16.1 | 0.58 | 1.85 | 1.75 | 98 | 1015.5 |
| 20260901151539 | 25 | 64 | 6.4 | 17.7 | 0.58 | 1.85 | 1.75 | 98 | 1015.3 |
| 20260901150054 | 25 | 63 | 8.0 | 20.9 | 0.56 | 1.83 | 1.73 | 98 | 1015.1 |
| 20260901144544 | 25 | 35 | 6.4 | 14.5 | 0.05 | 1.32 | 1.22 | 98 | 1015.3 |
| 20260901143045 | 25 | 32 | 6.4 | 17.7 | 0.03 | 1.27 | 1.17 | 99 | 1015.1 |
| 20260901141548 | 25 | 336 | 6.4 | 16.1 | 0.05 | 1.27 | 1.17 | 98 | 1015.2 |
| 20260901140048 | 25 | 64 | 4.8 | 14.5 | 0.08 | 1.27 | 1.17 | 99 | 1015.0 |
| 20260901134545 | 25 | 121 | 8.0 | 16.1 | 0.08 | 1.27 | 1.17 | 98 | 1014.9 |
| 20260901133041 | 25 | 117 | 3.2 | 11.3 | 0.05 | 1.24 | 1.14 | 98 | 1014.9 |
| 20260901131547 | 25 | 66 | 3.2 | 14.5 | 0.05 | 1.22 | 1.12 | 98 | 1014.7 |
| 20260901130043 | 25 | 59 | 6.4 | 25.7 | 0.05 | 1.19 | 1.09 | 98 | 1014.7 |
| 20260901124550 | 25 | 97 | 6.4 | 16.1 | 0.05 | 1.19 | 1.09 | 98 | 1014.4 |
| 20260901123049 | 24 | 84 | 4.8 | 16.1 | 0.28 | 1.17 | 1.07 | 98 | 1014.2 |
| 20260901121544 | 24 | 46 | 4.8 | 14.5 | 0.51 | 1.17 | 1.07 | 98 | 1013.9 |
| 20260901120107 | 24 | 360 | 8.0 | 14.5 | 0.61 | 1.14 | 1.04 | 98 | 1013.9 |
| 20260901114538 | 24 | 81 | 1.6 | 11.3 | 0.69 | 1.14 | 1.04 | 98 | 1013.9 |
| 20260901113051 | 23 | 45 | 6.4 | 12.9 | 0.46 | 0.86 | 0.76 | 98 | 1013.8 |
| 20260901111543 | 23 | 50 | 4.8 | 12.9 | 0.33 | 0.66 | 0.56 | 97 | 1013.8 |
| 20260901110048 | 23 | 65 | 4.8 | 16.1 | 0.25 | 0.53 | 0.43 | 97 | 1013.7 |
| 20260901104539 | 24 | 67 | 4.8 | 16.1 | 0.23 | 0.46 | 0.36 | 97 | 1013.5 |
| 20260901103049 | 24 | 69 | 4.8 | 14.5 | 0.20 | 0.41 | 0.30 | 97 | 1013.4 |